Weather History for KBIS - August, 2014

Change the Weather History Date:

Saturday, August 16, 2014

  Actual Average Record
Temperature  
Mean Temperature 72 °F 70 °F  
Max Temperature 76 °F 84 °F 101 °F (2003)
Min Temperature 68 °F 56 °F 41 °F (1970)
Degree Days  
Heating Degree Days 0 1  
Month to date heating degree days 0 13  
Since 1 June heating degree days 122 123  
Since 1 July heating degree days 28 30  
Cooling Degree Days 7 6  
Month to date cooling degree days 99 108  
Year to date cooling degree days 351 412  
Since 1 June cooling degree days 300 395  
Growing Degree Days 22 (Base 50)    
Moisture  
Dew Point 68 °F    
Average Humidity 90    
Maximum Humidity 97    
Minimum Humidity 82    
Precipitation  
Precipitation 0.70 in 0.07 in 1.50 in (1880)
Month to date precipitation 2.77 1.25  
Year to date precipitation 10.71 12.78  
Snow  
Snow 0.00 in 0.00 in 0.00 in (2002)
Month to date snowfall 0.0 0.0  
Since 1 June snowfall 0.0 0.0  
Since 1 July snowfall 0.0 0.0  
Snow Depth 0.00 in    
Sea Level Pressure  
Sea Level Pressure 29.89 in    
Wind  
Wind Speed 8 mph (North)    
Max Wind Speed 18 mph    
Max Gust Speed 22 mph    
Visibility 8 miles    
Events Rain , Thunderstorm    
T = Trace of Precipitation, MM = Missing Value Source: NWS Daily Summary

Daily Weather History Graph

Daily Weather History Graph

Search for Another Location

Airport or City:

Trip Planner

Search our weather history database for the weather conditions in past years. The results will help you decide how hot, cold, wet, or windy it might be!

Date:

Astronomy

Aug. 16, 2014 Rise Set
Actual Time 6:42 AM CDT 8:51 PM CDT
Civil Twilight 6:08 AM CDT 9:24 PM CDT
Nautical Twilight 5:27 AM CDT 10:05 PM CDT
Astronomical Twilight 4:41 AM CDT 10:50 PM CDT
Moon No Moon Rise 1:57 PM CDT (8/16)
Length of Visible Light 15h 15m
Length of Day
14h 09m
Waning Gibbous, 58% of the Moon is Illuminated
Aug 16
Waning Gibbous
Aug 17
Last Quarter
Aug 25
New
Sep 2
First Quarter
Sep 8
Full

Hourly Weather History & Observations

Time (CDT) Temp. Dew Point Humidity Pressure Visibility Wind Dir Wind Speed Gust Speed Precip Events Conditions
12:52 AM 73.9 °F 69.1 °F 85% 29.81 in 10.0 mi North 5.8 mph - N/A   Overcast
1:52 AM 73.0 °F 69.1 °F 87% 29.80 in 10.0 mi NNE 4.6 mph - N/A   Overcast
2:52 AM 72.0 °F 69.1 °F 91% 29.80 in 10.0 mi NE 5.8 mph - N/A   Overcast
3:40 AM 72.0 °F 69.1 °F 91% 29.82 in 10.0 mi Calm Calm - N/A Thunderstorm Overcast
3:49 AM 71.6 °F 69.8 °F 94% 29.83 in 10.0 mi SE 4.6 mph - N/A   Overcast
3:52 AM 72.0 °F 69.1 °F 91% 29.81 in 10.0 mi SE 5.8 mph - N/A   Overcast
4:21 AM 71.1 °F 69.1 °F 93% 29.83 in 2.5 mi West 3.5 mph - 0.02 in Rain Rain
4:29 AM 70.0 °F 69.1 °F 97% 29.83 in 1.2 mi SSW 3.5 mph - 0.12 in Rain Heavy Rain
4:44 AM 70.0 °F 70.0 °F 100% 29.84 in 3.0 mi Calm Calm - 0.30 in Rain Light Rain
4:52 AM 71.1 °F 70.0 °F 96% 29.82 in 7.0 mi West 5.8 mph - 0.30 in Thunderstorm Thunderstorm
5:14 AM 71.1 °F 69.1 °F 93% 29.84 in 7.0 mi NW 8.1 mph - N/A Thunderstorm Overcast
5:23 AM 71.1 °F 69.1 °F 93% 29.84 in 7.0 mi NNW 9.2 mph - N/A   Overcast
5:52 AM 70.0 °F 68.0 °F 93% 29.82 in 6.0 mi NNW 9.2 mph - 0.04 in Rain Light Rain
6:34 AM 69.1 °F 66.9 °F 93% 29.85 in 10.0 mi NNE 10.4 mph - 0.01 in   Overcast
6:52 AM 69.1 °F 66.9 °F 93% 29.83 in 10.0 mi NNE 11.5 mph - 0.01 in   Overcast
7:52 AM 70.0 °F 66.9 °F 90% 29.84 in 10.0 mi NE 6.9 mph - N/A   Overcast
8:25 AM 70.0 °F 66.0 °F 87% 29.88 in 10.0 mi NNW 3.5 mph - N/A   Overcast
8:52 AM 70.0 °F 66.9 °F 90% 29.86 in 10.0 mi NE 4.6 mph - N/A   Mostly Cloudy
9:52 AM 71.1 °F 66.0 °F 84% 29.86 in 10.0 mi North 4.6 mph - N/A   Overcast
10:49 AM 69.8 °F 66.2 °F 88% 29.90 in 2.5 mi NW 10.4 mph - 0.03 in Rain Light Rain
10:52 AM 69.1 °F 66.9 °F 93% 29.88 in 4.0 mi NW 9.2 mph - 0.04 in Rain Light Rain
11:06 AM 69.1 °F 66.9 °F 93% 29.91 in 8.0 mi NW 6.9 mph - 0.00 in Rain Light Rain
11:42 AM 68.0 °F 66.0 °F 93% 29.92 in 1.8 mi NW 5.8 mph - 0.04 in Rain Heavy Rain
11:52 AM 68.0 °F 66.9 °F 96% 29.90 in 0.8 mi WNW 8.1 mph - 0.13 in Rain Heavy Rain
11:56 AM 68.0 °F 66.9 °F 96% 29.92 in 1.0 mi WNW 8.1 mph - 0.04 in Rain Heavy Rain
12:03 PM 68.0 °F 66.9 °F 96% 29.92 in 3.0 mi NW 11.5 mph - 0.06 in Rain Rain
12:52 PM 69.1 °F 66.9 °F 93% 29.90 in 10.0 mi NW 12.7 mph - 0.10 in Rain Light Rain
1:01 PM 69.1 °F 66.9 °F 93% 29.92 in 10.0 mi NNW 11.5 mph - 0.00 in Rain Light Rain
1:52 PM 70.0 °F 68.0 °F 93% 29.89 in 10.0 mi NNW 10.4 mph - 0.02 in Rain Light Rain
1:59 PM 71.1 °F 68.0 °F 90% 29.91 in 10.0 mi NW 5.8 mph - 0.00 in Rain Light Rain
2:52 PM 71.1 °F 69.1 °F 93% 29.90 in 6.0 mi North 11.5 mph - 0.04 in Rain Light Rain
3:09 PM 71.1 °F 69.1 °F 93% 29.92 in 5.0 mi North 11.5 mph - 0.01 in Rain Light Rain
3:20 PM 72.0 °F 70.0 °F 93% 29.92 in 4.0 mi NNW 8.1 mph - 0.02 in Rain Light Rain
3:37 PM 71.1 °F 69.1 °F 93% 29.92 in 10.0 mi North 11.5 mph - 0.02 in Rain Light Rain
3:52 PM 71.1 °F 68.0 °F 90% 29.91 in 10.0 mi North 13.8 mph - 0.02 in Rain Light Rain
4:00 PM 71.1 °F 68.0 °F 90% 29.92 in 10.0 mi North 11.5 mph - 0.00 in Rain Light Rain
4:13 PM 73.0 °F 70.0 °F 90% 29.92 in 10.0 mi North 9.2 mph 18.4 mph 0.00 in Rain Light Rain
4:38 PM 73.0 °F 69.1 °F 87% 29.93 in 10.0 mi North 13.8 mph - 0.00 in   Overcast
4:52 PM 72.0 °F 68.0 °F 87% 29.91 in 10.0 mi North 11.5 mph - 0.00 in   Overcast
5:28 PM 73.0 °F 68.0 °F 84% 29.93 in 10.0 mi North 10.4 mph - N/A   Mostly Cloudy
5:52 PM 75.9 °F 69.1 °F 79% 29.91 in 10.0 mi North 11.5 mph - N/A   Mostly Cloudy
6:52 PM 72.0 °F 66.9 °F 84% 29.91 in 10.0 mi NNE 12.7 mph - N/A   Overcast
7:43 PM 73.0 °F 68.0 °F 84% 29.93 in 10.0 mi NNW 9.2 mph - N/A   Overcast
7:52 PM 73.0 °F 68.0 °F 84% 29.92 in 10.0 mi North 9.2 mph - N/A   Overcast
8:23 PM 72.0 °F 66.9 °F 84% 29.94 in 10.0 mi NNE 9.2 mph - N/A   Scattered Clouds
8:41 PM 72.0 °F 68.0 °F 87% 29.94 in 10.0 mi NNE 8.1 mph - N/A   Mostly Cloudy
8:52 PM 71.1 °F 66.9 °F 87% 29.93 in 10.0 mi North 5.8 mph - N/A   Mostly Cloudy
9:00 PM 71.1 °F 66.9 °F 87% 29.96 in 10.0 mi NNE 5.8 mph - N/A   Mostly Cloudy
9:18 PM 70.0 °F 66.9 °F 90% 29.97 in 10.0 mi NE 6.9 mph - N/A   Partly Cloudy
9:52 PM 69.1 °F 66.9 °F 93% 29.96 in 10.0 mi NNE 4.6 mph - N/A   Partly Cloudy
10:52 PM 68.0 °F 66.9 °F 96% 29.96 in 9.0 mi NNE 3.5 mph - N/A   Mostly Cloudy
11:44 PM 69.1 °F 66.9 °F 93% 29.97 in 8.0 mi NE 6.9 mph - N/A   Overcast
11:52 PM 69.8 °F 66.2 °F 88% 29.97 in 8.0 mi NE 4.6 mph - N/A   Overcast